{"data":{"norad_id":58384,"epoch":"2026-05-25T00:48:03.796128Z","epoch_age_seconds":76085,"freshness":"FRESH","line1":"1 58384U 23178L   26145.03337727  .00001073  00000+0  42891-4 0  9997","line2":"2 58384  53.1612   5.4691 0001050  80.8794 279.2327 15.34394344141597","mean_motion":15.34394344,"eccentricity":0.000105,"inclination_deg":53.1612,"raan_deg":5.4691,"arg_perigee_deg":80.8794,"mean_anomaly_deg":279.2327,"bstar":4.2891e-5,"rev_number":14159,"period_min":93.848104017777,"perigee_km":462.00176109233,"apogee_km":463.43834107306,"semimajor_km":6840.8570510827,"source":"CELESTRAK","updated_at":"2026-05-25T13:38:18.613880Z"}}